Regional Weather Roundup
Issued by NWS

Home | Current Version | Previous Version | Graphics & Text | Print | Product List | Glossary On
Versions: 1 2 3 4 5 6 7 8 9 10 11 12 13 14 15 16 17 18 19 20 21 22 23 24 25 26 27 28 29 30 31 32 33 34 35 36 37 38 39 40 41 42 43 44 45 46 47 48 49 50
000
ASUS43 KBIS 210710
RWRND

NORTH DAKOTA REGIONAL WEATHER ROUNDUP
NATIONAL WEATHER SERVICE BISMARCK ND
200 AM CDT THU AUG 21 2014

NOTE: "FAIR" INDICATES FEW OR NO CLOUDS BELOW 12,000 FEET WITH NO
SIGNIFICANT WEATHER AND/OR OBSTRUCTIONS TO VISIBILITY.


NDZ001>003-009>011-017-210800-
NORTHWEST NORTH DAKOTA

CITY           SKY/WX    TMP DP  RH WIND       PRES   REMARKS
WILLISTON      CLEAR     60  59  96 CALM      29.80S
MINOT          CLOUDY    64  62  93 NW6       29.74F
MINOT AFB      MOCLDY    64  64 100 NE5       29.74F
$$

NDZ018>021-031>035-040>046-210800-
SOUTHWEST NORTH DAKOTA

CITY           SKY/WX    TMP DP  RH WIND       PRES   REMARKS
BISMARCK       CLOUDY    69  68  96 NW5       29.73S
DICKINSON      CLEAR     59  57  93 W8        29.80S
GARRISON         N/A     66  65  96 CALM      29.76S
HETTINGER ARPT CLEAR     57  55  93 N3        29.83S
$$

NDZ004>008-012>016-024-026-027-054-210800-
NORTHEAST NORTH DAKOTA

CITY           SKY/WX    TMP DP  RH WIND       PRES   REMARKS
GRAND FORKS    CLOUDY    70  66  87 SE12      29.72F
GRND FRKS AFB  CLOUDY    69  68  99 E9        29.72F
DEVILS LAKE    CLOUDY    72  64  78 SE10      29.72S
$$

NDZ022-023-025-028>030-036>039-047>053-210800-
SOUTHEAST NORTH DAKOTA

CITY           SKY/WX    TMP DP  RH WIND       PRES   REMARKS
FARGO          CLOUDY    72  66  81 E12       29.73F
JAMESTOWN      CLOUDY    71  68  90 S13G18    29.67R
$$



USA.gov is the U.S. government's official web portal to all federal, state and local government web resources and services.